Time,TemperatureF,DewpointF,PressureIn,WindDirection,WindDirectionDegrees,WindSpeedMPH,WindSpeedGustMPH,Humidity,HourlyPrecipIn,Conditions,Clouds,dailyrainin,SoftwareType,DateUTC
2013-01-27 00:01:00,40.0,37.0,30.02,South,179,1.0,3.0,89,0.00,,,0.13,,2013-01-27 08:01:00,
2013-01-27 00:11:00,40.0,37.0,30.02,South,179,1.0,3.0,89,0.00,,,0.13,,2013-01-27 08:11:00,
2013-01-27 00:21:00,40.0,37.0,30.02,SSW,198,1.0,5.0,90,0.00,,,0.13,,2013-01-27 08:21:00,
2013-01-27 00:31:00,39.0,36.0,30.02,SSW,196,0.0,2.0,90,0.00,,,0.13,,2013-01-27 08:31:00,
2013-01-27 00:41:00,39.0,36.0,30.02,SSW,196,0.0,2.0,90,0.00,,,0.13,,2013-01-27 08:41:00,
2013-01-27 00:52:00,39.0,36.0,30.03,SSW,196,0.0,1.0,90,0.00,,,0.13,,2013-01-27 08:52:00,
2013-01-27 01:02:00,39.0,37.0,30.03,SSW,196,0.0,1.0,91,0.00,,,0.13,,2013-01-27 09:02:00,
2013-01-27 01:11:00,39.0,37.0,30.03,SSW,196,0.0,1.0,91,0.00,,,0.13,,2013-01-27 09:11:00,
2013-01-27 01:21:00,39.0,37.0,30.03,SW,223,2.0,4.0,91,0.00,,,0.13,,2013-01-27 09:21:00,
2013-01-27 01:31:00,39.0,36.0,30.03,SW,217,1.0,3.0,90,0.00,,,0.13,,2013-01-27 09:31:00,
2013-01-27 01:41:00,39.0,36.0,30.03,SW,217,1.0,3.0,90,0.00,,,0.13,,2013-01-27 09:41:00,
2013-01-27 01:52:00,39.0,37.0,30.03,SW,221,1.0,3.0,91,0.00,,,0.13,,2013-01-27 09:52:00,
2013-01-27 02:01:00,38.0,36.0,30.03,SSW,194,0.0,4.0,91,0.00,,,0.13,,2013-01-27 10:01:00,
2013-01-27 02:11:00,38.0,36.0,30.03,NNW,344,0.0,5.0,91,0.00,,,0.13,,2013-01-27 10:11:00,
2013-01-27 02:21:00,38.0,36.0,30.03,NNW,344,0.0,5.0,91,0.00,,,0.13,,2013-01-27 10:21:00,
2013-01-27 02:31:00,38.0,36.0,30.03,WNW,289,1.0,3.0,91,0.00,,,0.13,,2013-01-27 10:31:00,
2013-01-27 02:41:00,38.0,36.0,30.03,WNW,289,1.0,3.0,91,0.00,,,0.13,,2013-01-27 10:41:00,
2013-01-27 02:52:00,38.0,36.0,30.03,South,188,1.0,3.0,91,0.00,,,0.13,,2013-01-27 10:52:00,
2013-01-27 03:01:00,38.0,36.0,30.03,SSW,207,1.0,5.0,92,0.00,,,0.13,,2013-01-27 11:01:00,
2013-01-27 03:11:00,38.0,36.0,30.03,SSW,207,1.0,5.0,92,0.00,,,0.13,,2013-01-27 11:11:00,
2013-01-27 03:21:00,39.0,37.0,30.03,South,186,2.0,5.0,91,0.00,,,0.13,,2013-01-27 11:21:00,
2013-01-27 03:31:00,39.0,37.0,30.03,West,263,1.0,7.0,91,0.00,,,0.13,,2013-01-27 11:31:00,
2013-01-27 03:42:00,39.0,37.0,30.03,West,263,1.0,7.0,91,0.00,,,0.13,,2013-01-27 11:42:00,
2013-01-27 03:52:00,39.0,36.0,30.03,West,280,0.0,5.0,90,0.00,,,0.13,,2013-01-27 11:52:00,
2013-01-27 04:02:00,39.0,36.0,30.03,West,280,0.0,1.0,90,0.00,,,0.13,,2013-01-27 12:02:00,
2013-01-27 04:11:00,39.0,36.0,30.03,West,280,0.0,1.0,90,0.00,,,0.13,,2013-01-27 12:11:00,
2013-01-27 04:21:00,38.0,36.0,30.03,SSE,155,0.0,3.0,91,0.00,,,0.13,,2013-01-27 12:21:00,
2013-01-27 04:32:00,38.0,36.0,30.02,SSW,206,0.0,3.0,91,0.00,,,0.13,,2013-01-27 12:32:00,
2013-01-27 04:41:00,38.0,36.0,30.02,SSW,206,0.0,3.0,91,0.00,,,0.13,,2013-01-27 12:41:00,
2013-01-27 04:52:00,38.0,36.0,30.03,SSW,207,0.0,2.0,91,0.00,,,0.13,,2013-01-27 12:52:00,
2013-01-27 05:01:00,38.0,36.0,30.03,SSW,207,0.0,1.0,91,0.00,,,0.13,,2013-01-27 13:01:00,
2013-01-27 05:11:00,38.0,36.0,30.03,SSW,207,0.0,1.0,91,0.00,,,0.13,,2013-01-27 13:11:00,
2013-01-27 05:22:00,38.0,36.0,30.03,SW,214,0.0,2.0,92,0.00,,,0.10,,2013-01-27 13:22:00,
2013-01-27 05:31:00,38.0,36.0,30.03,SSW,213,1.0,3.0,92,0.00,,,0.10,,2013-01-27 13:31:00,
2013-01-27 05:41:00,38.0,36.0,30.03,SSW,213,1.0,3.0,92,0.00,,,0.10,,2013-01-27 13:41:00,
2013-01-27 05:52:00,38.0,36.0,30.03,SSW,212,0.0,2.0,91,0.00,,,0.10,,2013-01-27 13:52:00,
2013-01-27 06:01:00,38.0,36.0,30.03,SW,217,0.0,3.0,92,0.00,,,0.10,,2013-01-27 14:01:00,
2013-01-27 06:11:00,38.0,36.0,30.03,SW,217,0.0,3.0,92,0.00,,,0.10,,2013-01-27 14:11:00,
2013-01-27 06:21:00,38.0,36.0,30.03,SW,217,0.0,1.0,92,0.00,,,0.06,,2013-01-27 14:21:00,
2013-01-27 06:31:00,38.0,36.0,30.03,SW,217,0.0,1.0,92,0.00,,,0.06,,2013-01-27 14:31:00,
2013-01-27 06:42:00,38.0,36.0,30.03,SW,217,0.0,1.0,92,0.00,,,0.06,,2013-01-27 14:42:00,
2013-01-27 06:52:00,38.0,36.0,30.03,SW,217,0.0,1.0,92,0.00,,,0.06,,2013-01-27 14:52:00,
2013-01-27 07:01:00,37.0,35.0,30.03,SW,217,0.0,1.0,92,0.00,,,0.06,,2013-01-27 15:01:00,
2013-01-27 07:11:00,37.0,35.0,30.03,SW,217,0.0,1.0,92,0.00,,,0.06,,2013-01-27 15:11:00,
2013-01-27 07:21:00,37.0,35.0,30.03,SW,217,1.0,2.0,92,0.00,,,0.05,,2013-01-27 15:21:00,
2013-01-27 07:31:00,37.0,35.0,30.03,SW,217,0.0,1.0,92,0.00,,,0.05,,2013-01-27 15:31:00,
2013-01-27 07:42:00,37.0,35.0,30.03,SW,217,0.0,1.0,92,0.00,,,0.05,,2013-01-27 15:42:00,
2013-01-27 07:52:00,37.0,35.0,30.03,SW,217,0.0,2.0,92,0.00,,,0.05,,2013-01-27 15:52:00,
2013-01-27 08:01:00,37.0,35.0,30.03,SSW,194,0.0,2.0,93,0.00,,,0.05,,2013-01-27 16:01:00,
2013-01-27 08:11:00,37.0,35.0,30.03,SSW,194,0.0,2.0,93,0.00,,,0.05,,2013-01-27 16:11:00,
2013-01-27 08:21:00,38.0,36.0,30.03,SSW,207,0.0,2.0,93,0.00,,,0.02,,2013-01-27 16:21:00,
2013-01-27 08:31:00,38.0,36.0,30.03,South,171,1.0,3.0,93,0.00,,,0.02,,2013-01-27 16:31:00,
2013-01-27 08:41:00,38.0,36.0,30.03,South,171,1.0,3.0,93,0.00,,,0.02,,2013-01-27 16:41:00,
2013-01-27 08:52:00,38.0,36.0,30.03,South,184,1.0,6.0,91,0.00,,,0.02,,2013-01-27 16:52:00,
2013-01-27 09:01:00,39.0,36.0,30.03,SSW,192,3.0,7.0,90,0.00,,,0.02,,2013-01-27 17:01:00,
2013-01-27 09:11:00,39.0,36.0,30.03,SSW,192,3.0,7.0,90,0.00,,,0.02,,2013-01-27 17:11:00,
2013-01-27 09:21:00,39.0,36.0,30.04,South,187,3.0,6.0,90,0.00,,,0.01,,2013-01-27 17:21:00,
2013-01-27 09:31:00,39.0,36.0,30.04,WSW,250,1.0,4.0,90,0.00,,,0.01,,2013-01-27 17:31:00,
2013-01-27 09:41:00,39.0,36.0,30.04,WSW,250,1.0,4.0,90,0.00,,,0.01,,2013-01-27 17:41:00,
2013-01-27 09:52:00,39.0,36.0,30.04,SSW,194,0.0,4.0,90,0.00,,,0.01,,2013-01-27 17:52:00,
2013-01-27 10:01:00,39.0,36.0,30.04,SW,219,0.0,4.0,89,0.00,,,0.01,,2013-01-27 18:01:00,
2013-01-27 10:11:00,39.0,36.0,30.04,SW,219,0.0,4.0,89,0.00,,,0.01,,2013-01-27 18:11:00,
2013-01-27 10:22:00,40.0,37.0,30.04,South,185,1.0,4.0,89,0.00,,,0.00,,2013-01-27 18:22:00,
2013-01-27 10:31:00,40.0,37.0,30.05,SSW,200,3.0,5.0,89,0.00,,,0.00,,2013-01-27 18:31:00,
2013-01-27 10:41:00,40.0,37.0,30.05,SSW,200,3.0,5.0,89,0.00,,,0.00,,2013-01-27 18:41:00,
2013-01-27 10:52:00,41.0,38.0,30.05,SW,229,1.0,5.0,89,0.00,,,0.00,,2013-01-27 18:52:00,
2013-01-27 11:01:00,41.0,38.0,30.04,South,191,2.0,7.0,89,0.00,,,0.00,,2013-01-27 19:01:00,
2013-01-27 11:11:00,41.0,38.0,30.04,South,191,2.0,7.0,89,0.00,,,0.00,,2013-01-27 19:11:00,
2013-01-27 11:21:00,42.0,39.0,30.04,SSE,167,2.0,6.0,88,0.00,,,0.00,,2013-01-27 19:21:00,
2013-01-27 11:32:00,42.0,39.0,30.04,South,190,4.0,7.0,88,0.00,,,0.00,,2013-01-27 19:32:00,
2013-01-27 11:41:00,42.0,39.0,30.04,South,190,4.0,7.0,88,0.00,,,0.00,,2013-01-27 19:41:00,
2013-01-27 11:52:00,42.0,38.0,30.03,SW,220,3.0,9.0,87,0.00,,,0.00,,2013-01-27 19:52:00,
2013-01-27 12:02:00,42.0,38.0,30.03,SW,215,3.0,8.0,87,0.00,,,0.00,,2013-01-27 20:02:00,
2013-01-27 12:11:00,42.0,38.0,30.03,SW,215,3.0,8.0,87,0.00,,,0.00,,2013-01-27 20:11:00,
2013-01-27 12:21:00,42.0,38.0,30.02,SSW,197,1.0,9.0,86,0.00,,,0.00,,2013-01-27 20:21:00,
2013-01-27 12:31:00,42.0,38.0,30.01,SSW,195,3.0,9.0,86,0.00,,,0.00,,2013-01-27 20:31:00,
2013-01-27 12:41:00,42.0,38.0,30.01,SSW,195,3.0,9.0,86,0.00,,,0.00,,2013-01-27 20:41:00,
2013-01-27 12:52:00,42.0,38.0,30.01,South,191,2.0,10.0,86,0.00,,,0.00,,2013-01-27 20:52:00,
2013-01-27 13:01:00,42.0,38.0,30.00,SSW,196,3.0,7.0,87,0.00,,,0.00,,2013-01-27 21:01:00,
2013-01-27 13:11:00,42.0,38.0,30.00,SSW,196,3.0,7.0,87,0.00,,,0.00,,2013-01-27 21:11:00,
2013-01-27 13:21:00,42.0,38.0,30.00,South,170,4.0,8.0,87,0.00,,,0.00,,2013-01-27 21:21:00,
2013-01-27 13:32:00,42.0,38.0,30.00,SSE,150,2.0,10.0,87,0.00,,,0.00,,2013-01-27 21:32:00,
2013-01-27 13:42:00,42.0,38.0,30.00,SSE,150,2.0,10.0,87,0.00,,,0.00,,2013-01-27 21:42:00,
2013-01-27 13:52:00,42.0,38.0,29.99,SSE,167,2.0,8.0,87,0.00,,,0.00,,2013-01-27 21:52:00,
2013-01-27 14:01:00,42.0,38.0,29.98,SSW,204,2.0,9.0,87,0.00,,,0.00,,2013-01-27 22:01:00,
2013-01-27 14:11:00,42.0,38.0,29.98,SSW,204,2.0,9.0,87,0.00,,,0.00,,2013-01-27 22:11:00,
2013-01-27 14:21:00,42.0,38.0,29.98,South,182,4.0,7.0,87,0.00,,,0.00,,2013-01-27 22:21:00,
2013-01-27 14:31:00,42.0,38.0,29.99,South,174,3.0,11.0,86,0.00,,,0.00,,2013-01-27 22:31:00,
2013-01-27 14:42:00,42.0,38.0,29.99,South,174,3.0,11.0,86,0.00,,,0.00,,2013-01-27 22:42:00,
2013-01-27 14:52:00,42.0,38.0,29.99,WSW,250,3.0,8.0,86,0.00,,,0.00,,2013-01-27 22:52:00,
2013-01-27 15:01:00,42.0,38.0,29.99,SSW,192,5.0,10.0,86,0.00,,,0.00,,2013-01-27 23:01:00,
2013-01-27 15:11:00,42.0,38.0,29.99,SSW,192,5.0,10.0,86,0.00,,,0.00,,2013-01-27 23:11:00,
2013-01-27 15:21:00,42.0,38.0,29.99,SSE,155,3.0,11.0,86,0.00,,,0.00,,2013-01-27 23:21:00,
2013-01-27 15:31:00,42.0,38.0,29.99,SW,225,2.0,6.0,86,0.00,,,0.00,,2013-01-27 23:31:00,
2013-01-27 15:41:00,42.0,38.0,29.99,SW,225,2.0,6.0,86,0.00,,,0.00,,2013-01-27 23:41:00,
2013-01-27 15:53:00,42.0,38.0,29.98,SW,218,4.0,8.0,87,0.00,,,0.00,,2013-01-27 23:53:00,
2013-01-27 16:01:00,42.0,38.0,29.98,SSW,201,2.0,8.0,86,0.00,,,0.00,,2013-01-28 00:01:00,
2013-01-27 16:11:00,42.0,38.0,29.98,SSW,201,2.0,8.0,86,0.00,,,0.00,,2013-01-28 00:11:00,
2013-01-27 16:21:00,42.0,38.0,29.98,SSW,211,1.0,7.0,86,0.00,,,0.00,,2013-01-28 00:21:00,
2013-01-27 16:32:00,42.0,38.0,29.98,South,180,1.0,3.0,87,0.00,,,0.00,,2013-01-28 00:32:00,
2013-01-27 16:41:00,42.0,38.0,29.98,South,180,1.0,3.0,87,0.00,,,0.00,,2013-01-28 00:41:00,
2013-01-27 16:52:00,42.0,38.0,29.98,SSE,165,2.0,8.0,87,0.00,,,0.00,,2013-01-28 00:52:00,
2013-01-27 17:01:00,42.0,38.0,29.98,South,189,2.0,5.0,87,0.00,,,0.00,,2013-01-28 01:01:00,
2013-01-27 17:11:00,42.0,38.0,29.98,South,189,2.0,5.0,87,0.00,,,0.00,,2013-01-28 01:11:00,
2013-01-27 17:21:00,42.0,38.0,29.98,WSW,252,1.0,4.0,87,0.00,,,0.00,,2013-01-28 01:21:00,
2013-01-27 17:32:00,42.0,38.0,29.98,SW,223,2.0,5.0,87,0.00,,,0.00,,2013-01-28 01:32:00,
2013-01-27 17:42:00,42.0,38.0,29.98,SW,223,2.0,5.0,87,0.00,,,0.00,,2013-01-28 01:42:00,
2013-01-27 17:52:00,42.0,38.0,29.98,SSW,197,2.0,6.0,87,0.00,,,0.00,,2013-01-28 01:52:00,
2013-01-27 18:01:00,41.0,37.0,29.98,SW,216,1.0,6.0,87,0.00,,,0.00,,2013-01-28 02:01:00,
2013-01-27 18:11:00,41.0,37.0,29.98,SW,216,1.0,6.0,87,0.00,,,0.00,,2013-01-28 02:11:00,
2013-01-27 18:21:00,41.0,37.0,29.98,South,184,0.0,5.0,87,0.00,,,0.00,,2013-01-28 02:21:00,
2013-01-27 18:32:00,41.0,37.0,29.98,SSW,200,0.0,3.0,87,0.00,,,0.00,,2013-01-28 02:32:00,
2013-01-27 18:41:00,41.0,37.0,29.98,SSW,200,0.0,3.0,87,0.00,,,0.00,,2013-01-28 02:41:00,
2013-01-27 18:52:00,41.0,38.0,29.98,SSW,194,0.0,2.0,88,0.00,,,0.00,,2013-01-28 02:52:00,
2013-01-27 19:01:00,41.0,38.0,29.98,SW,232,1.0,4.0,88,0.00,,,0.00,,2013-01-28 03:01:00,
2013-01-27 19:11:00,41.0,38.0,29.98,SW,232,1.0,4.0,88,0.00,,,0.00,,2013-01-28 03:11:00,
2013-01-27 19:21:00,41.0,38.0,29.98,SSW,193,0.0,6.0,88,0.00,,,0.00,,2013-01-28 03:21:00,
2013-01-27 19:31:00,41.0,38.0,29.99,SSW,194,1.0,5.0,88,0.00,,,0.00,,2013-01-28 03:31:00,
2013-01-27 19:41:00,41.0,38.0,29.99,SSW,194,1.0,5.0,88,0.00,,,0.00,,2013-01-28 03:41:00,
2013-01-27 19:52:00,41.0,38.0,29.98,SW,217,1.0,5.0,88,0.00,,,0.00,,2013-01-28 03:52:00,
2013-01-27 20:01:00,41.0,38.0,29.99,South,174,1.0,4.0,88,0.00,,,0.00,,2013-01-28 04:01:00,
2013-01-27 20:11:00,41.0,38.0,29.99,South,174,1.0,4.0,88,0.00,,,0.00,,2013-01-28 04:11:00,
2013-01-27 20:21:00,41.0,38.0,29.99,South,174,1.0,4.0,88,0.00,,,0.00,,2013-01-28 04:21:00,
2013-01-27 20:31:00,41.0,38.0,29.98,SW,233,1.0,4.0,88,0.00,,,0.00,,2013-01-28 04:31:00,
2013-01-27 20:41:00,41.0,38.0,29.98,SW,233,1.0,4.0,88,0.00,,,0.00,,2013-01-28 04:41:00,
2013-01-27 20:52:00,41.0,38.0,29.99,South,180,2.0,4.0,88,0.00,,,0.00,,2013-01-28 04:52:00,
2013-01-27 21:03:00,41.0,38.0,29.99,South,182,2.0,6.0,88,0.00,,,0.00,,2013-01-28 05:03:00,
2013-01-27 21:11:00,41.0,38.0,29.99,South,182,2.0,6.0,88,0.00,,,0.00,,2013-01-28 05:11:00,
2013-01-27 21:21:00,41.0,38.0,29.98,SSE,165,1.0,4.0,88,0.00,,,0.00,,2013-01-28 05:21:00,
2013-01-27 21:31:00,41.0,38.0,29.99,South,184,2.0,4.0,88,0.00,,,0.00,,2013-01-28 05:31:00,
2013-01-27 21:41:00,41.0,38.0,29.99,South,184,2.0,4.0,88,0.00,,,0.00,,2013-01-28 05:41:00,
2013-01-27 21:52:00,41.0,38.0,29.99,SSE,167,0.0,4.0,89,0.00,,,0.00,,2013-01-28 05:52:00,
2013-01-27 22:01:00,41.0,38.0,29.99,SW,217,2.0,4.0,89,0.00,,,0.00,,2013-01-28 06:01:00,
2013-01-27 22:11:00,41.0,38.0,29.99,SW,217,2.0,4.0,89,0.00,,,0.00,,2013-01-28 06:11:00,
2013-01-27 22:21:00,41.0,38.0,29.98,South,184,2.0,5.0,89,0.00,,,0.00,,2013-01-28 06:21:00,
2013-01-27 22:31:00,41.0,38.0,29.98,South,171,1.0,5.0,90,0.00,,,0.00,,2013-01-28 06:31:00,
2013-01-27 22:41:00,41.0,38.0,29.98,South,171,1.0,5.0,90,0.00,,,0.00,,2013-01-28 06:41:00,
2013-01-27 22:52:00,41.0,38.0,29.98,South,174,1.0,5.0,90,0.00,,,0.00,,2013-01-28 06:52:00,
2013-01-27 23:02:00,41.0,38.0,29.99,SSW,194,2.0,5.0,90,0.00,,,0.00,,2013-01-28 07:02:00,
2013-01-27 23:11:00,41.0,38.0,29.99,SSW,194,2.0,5.0,90,0.00,,,0.00,,2013-01-28 07:11:00,
2013-01-27 23:21:00,41.0,38.0,29.99,SSW,202,1.0,6.0,90,0.00,,,0.00,,2013-01-28 07:21:00,
2013-01-27 23:31:00,41.0,38.0,29.99,South,180,0.0,4.0,90,0.00,,,0.00,,2013-01-28 07:31:00,
2013-01-27 23:41:00,41.0,38.0,29.99,South,180,0.0,4.0,90,0.00,,,0.00,,2013-01-28 07:41:00,
2013-01-27 23:51:00,41.0,38.0,29.99,South,182,0.0,1.0,90,0.00,,,0.00,,2013-01-28 07:51:00,